owner,sensor,date,latitude,longitude,sea_surface_height_above_sea_level,qcFlag 
COMPS,ioos:station:USF.COMPS:SHP:1,2019-02-02T04:06:00Z,30.0600,-84.2910,-9.997,1111122 
COMPS,ioos:station:USF.COMPS:SHP:1,2019-02-02T04:12:00Z,30.0600,-84.2910,-9.994,1111122 
COMPS,ioos:station:USF.COMPS:SHP:1,2019-02-02T04:18:00Z,30.0600,-84.2910,-9.992,1111122 
COMPS,ioos:station:USF.COMPS:SHP:1,2019-02-02T04:24:00Z,30.0600,-84.2910,-9.989,1111122 
COMPS,ioos:station:USF.COMPS:SHP:1,2019-02-02T04:30:00Z,30.0600,-84.2910,-9.987,1111122 
COMPS,ioos:station:USF.COMPS:SHP:1,2019-02-02T04:36:00Z,30.0600,-84.2910,-9.984,1111122 
COMPS,ioos:station:USF.COMPS:SHP:1,2019-02-02T04:42:00Z,30.0600,-84.2910,-9.981,1111122 
COMPS,ioos:station:USF.COMPS:SHP:1,2019-02-02T04:48:00Z,30.0600,-84.2910,-9.978,1111122 
COMPS,ioos:station:USF.COMPS:SHP:1,2019-02-02T04:54:00Z,30.0600,-84.2910,-9.976,1111122 
COMPS,ioos:station:USF.COMPS:SHP:1,2019-02-02T05:00:00Z,30.0600,-84.2910,-9.973,1111122 
COMPS,ioos:station:USF.COMPS:SHP:1,2019-02-02T05:06:00Z,30.0600,-84.2910,-9.97,1111122 
COMPS,ioos:station:USF.COMPS:SHP:1,2019-02-02T05:12:00Z,30.0600,-84.2910,-9.967,1111122 
COMPS,ioos:station:USF.COMPS:SHP:1,2019-02-02T05:18:00Z,30.0600,-84.2910,-9.965,1111122 
COMPS,ioos:station:USF.COMPS:SHP:1,2019-02-02T05:24:00Z,30.0600,-84.2910,-9.962,1111122 
COMPS,ioos:station:USF.COMPS:SHP:1,2019-02-02T05:30:00Z,30.0600,-84.2910,-9.959,1111122 
COMPS,ioos:station:USF.COMPS:SHP:1,2019-02-02T05:36:00Z,30.0600,-84.2910,-9.957,1111122 
COMPS,ioos:station:USF.COMPS:SHP:1,2019-02-02T05:42:00Z,30.0600,-84.2910,-9.955,1111122 
COMPS,ioos:station:USF.COMPS:SHP:1,2019-02-02T05:48:00Z,30.0600,-84.2910,-9.952,1111122 
COMPS,ioos:station:USF.COMPS:SHP:1,2019-02-02T05:54:00Z,30.0600,-84.2910,-9.95,1111122 
COMPS,ioos:station:USF.COMPS:SHP:1,2019-02-02T06:00:00Z,30.0600,-84.2910,-9.948,1111122 
COMPS,ioos:station:USF.COMPS:SHP:1,2019-02-02T06:06:00Z,30.0600,-84.2910,-9.945,1111122 
COMPS,ioos:station:USF.COMPS:SHP:1,2019-02-02T06:12:00Z,30.0600,-84.2910,-9.943,1111122 
COMPS,ioos:station:USF.COMPS:SHP:1,2019-02-02T06:18:00Z,30.0600,-84.2910,-9.941,1111122 
COMPS,ioos:station:USF.COMPS:SHP:1,2019-02-02T06:24:00Z,30.0600,-84.2910,-9.939,1111122 
COMPS,ioos:station:USF.COMPS:SHP:1,2019-02-02T06:30:00Z,30.0600,-84.2910,-9.936,1111122 
COMPS,ioos:station:USF.COMPS:SHP:1,2019-02-02T06:36:00Z,30.0600,-84.2910,-9.934,1111122 
COMPS,ioos:station:USF.COMPS:SHP:1,2019-02-02T06:42:00Z,30.0600,-84.2910,-9.932,1111122 
COMPS,ioos:station:USF.COMPS:SHP:1,2019-02-02T06:48:00Z,30.0600,-84.2910,-9.93,1111122 
COMPS,ioos:station:USF.COMPS:SHP:1,2019-02-02T06:54:00Z,30.0600,-84.2910,-9.929,1111122 
COMPS,ioos:station:USF.COMPS:SHP:1,2019-02-02T07:00:00Z,30.0600,-84.2910,-9.927,1111122 
COMPS,ioos:station:USF.COMPS:SHP:1,2019-02-02T07:06:00Z,30.0600,-84.2910,-9.926,1111122 
COMPS,ioos:station:USF.COMPS:SHP:1,2019-02-02T07:12:00Z,30.0600,-84.2910,-9.924,1111122 
COMPS,ioos:station:USF.COMPS:SHP:1,2019-02-02T07:18:00Z,30.0600,-84.2910,-9.923,1111122 
COMPS,ioos:station:USF.COMPS:SHP:1,2019-02-02T07:24:00Z,30.0600,-84.2910,-9.922,1111122 
COMPS,ioos:station:USF.COMPS:SHP:1,2019-02-02T07:30:00Z,30.0600,-84.2910,-9.921,1111122 
COMPS,ioos:station:USF.COMPS:SHP:1,2019-02-02T07:36:00Z,30.0600,-84.2910,-9.921,1111122 
COMPS,ioos:station:USF.COMPS:SHP:1,2019-02-02T07:42:00Z,30.0600,-84.2910,-9.92,1111122 
COMPS,ioos:station:USF.COMPS:SHP:1,2019-02-02T07:48:00Z,30.0600,-84.2910,-9.92,1111122 
COMPS,ioos:station:USF.COMPS:SHP:1,2019-02-02T07:54:00Z,30.0600,-84.2910,-9.919,1111122 
COMPS,ioos:station:USF.COMPS:SHP:1,2019-02-02T08:00:00Z,30.0600,-84.2910,-9.919,1111122 
COMPS,ioos:station:USF.COMPS:SHP:1,2019-02-02T08:06:00Z,30.0600,-84.2910,-9.919,1111122 
COMPS,ioos:station:USF.COMPS:SHP:1,2019-02-02T08:12:00Z,30.0600,-84.2910,-9.919,1111122 
COMPS,ioos:station:USF.COMPS:SHP:1,2019-02-02T08:18:00Z,30.0600,-84.2910,-9.92,1111122 
COMPS,ioos:station:USF.COMPS:SHP:1,2019-02-02T08:24:00Z,30.0600,-84.2910,-9.925,1111122 
COMPS,ioos:station:USF.COMPS:SHP:1,2019-02-02T08:30:00Z,30.0600,-84.2910,-9.937,1111122 
COMPS,ioos:station:USF.COMPS:SHP:1,2019-02-02T08:36:00Z,30.0600,-84.2910,-9.951,1111122 
COMPS,ioos:station:USF.COMPS:SHP:1,2019-02-02T08:42:00Z,30.0600,-84.2910,-9.963,1111122 
COMPS,ioos:station:USF.COMPS:SHP:1,2019-02-02T08:48:00Z,30.0600,-84.2910,-9.981,1111122 
COMPS,ioos:station:USF.COMPS:SHP:1,2019-02-03T07:36:00Z,30.0600,-84.2910,-9.998,1111122 
COMPS,ioos:station:USF.COMPS:SHP:1,2019-02-03T07:42:00Z,30.0600,-84.2910,-9.995,1111122 
COMPS,ioos:station:USF.COMPS:SHP:1,2019-02-03T07:48:00Z,30.0600,-84.2910,-9.992,1111122 
COMPS,ioos:station:USF.COMPS:SHP:1,2019-02-03T07:54:00Z,30.0600,-84.2910,-9.99,1111122 
COMPS,ioos:station:USF.COMPS:SHP:1,2019-02-03T08:00:00Z,30.0600,-84.2910,-9.988,1111122 
COMPS,ioos:station:USF.COMPS:SHP:1,2019-02-03T08:06:00Z,30.0600,-84.2910,-9.985,1111122 
COMPS,ioos:station:USF.COMPS:SHP:1,2019-02-03T08:12:00Z,30.0600,-84.2910,-9.983,1111122 
COMPS,ioos:station:USF.COMPS:SHP:1,2019-02-03T08:18:00Z,30.0600,-84.2910,-9.981,1111122 
COMPS,ioos:station:USF.COMPS:SHP:1,2019-02-03T08:24:00Z,30.0600,-84.2910,-9.979,1111122 
COMPS,ioos:station:USF.COMPS:SHP:1,2019-02-03T08:30:00Z,30.0600,-84.2910,-9.978,1111122 
COMPS,ioos:station:USF.COMPS:SHP:1,2019-02-03T08:36:00Z,30.0600,-84.2910,-9.976,1111122 
COMPS,ioos:station:USF.COMPS:SHP:1,2019-02-03T08:42:00Z,30.0600,-84.2910,-9.975,1111122 
COMPS,ioos:station:USF.COMPS:SHP:1,2019-02-03T08:48:00Z,30.0600,-84.2910,-9.974,1111122 
COMPS,ioos:station:USF.COMPS:SHP:1,2019-02-03T08:54:00Z,30.0600,-84.2910,-9.973,1111122 
COMPS,ioos:station:USF.COMPS:SHP:1,2019-02-03T09:00:00Z,30.0600,-84.2910,-9.972,1111122 
COMPS,ioos:station:USF.COMPS:SHP:1,2019-02-03T09:06:00Z,30.0600,-84.2910,-9.971,1111122 
COMPS,ioos:station:USF.COMPS:SHP:1,2019-02-03T09:12:00Z,30.0600,-84.2910,-9.97,1111122 
COMPS,ioos:station:USF.COMPS:SHP:1,2019-02-03T09:18:00Z,30.0600,-84.2910,-9.97,1111122 
COMPS,ioos:station:USF.COMPS:SHP:1,2019-02-03T09:24:00Z,30.0600,-84.2910,-9.969,1111122 
COMPS,ioos:station:USF.COMPS:SHP:1,2019-02-03T09:30:00Z,30.0600,-84.2910,-9.969,1111122 
COMPS,ioos:station:USF.COMPS:SHP:1,2019-02-03T09:36:00Z,30.0600,-84.2910,-9.97,1111122 
COMPS,ioos:station:USF.COMPS:SHP:1,2019-02-03T09:42:00Z,30.0600,-84.2910,-9.973,1111122 
COMPS,ioos:station:USF.COMPS:SHP:1,2019-02-03T09:48:00Z,30.0600,-84.2910,-9.981,1111122 
COMPS,ioos:station:USF.COMPS:SHP:1,2019-02-11T21:54:00Z,30.0600,-84.2910,-9.999,1111122 
COMPS,ioos:station:USF.COMPS:SHP:1,2019-02-11T22:00:00Z,30.0600,-84.2910,-9.995,1111122 
COMPS,ioos:station:USF.COMPS:SHP:1,2019-02-11T22:06:00Z,30.0600,-84.2910,-9.992,1111122 
COMPS,ioos:station:USF.COMPS:SHP:1,2019-02-11T22:12:00Z,30.0600,-84.2910,-9.99,1111122 
COMPS,ioos:station:USF.COMPS:SHP:1,2019-02-11T22:18:00Z,30.0600,-84.2910,-9.989,1111122 
COMPS,ioos:station:USF.COMPS:SHP:1,2019-02-11T22:24:00Z,30.0600,-84.2910,-9.987,1111122 
COMPS,ioos:station:USF.COMPS:SHP:1,2019-02-11T22:30:00Z,30.0600,-84.2910,-9.985,1111122 
COMPS,ioos:station:USF.COMPS:SHP:1,2019-02-11T22:36:00Z,30.0600,-84.2910,-9.984,1111122 
COMPS,ioos:station:USF.COMPS:SHP:1,2019-02-11T22:42:00Z,30.0600,-84.2910,-9.982,1111122 
COMPS,ioos:station:USF.COMPS:SHP:1,2019-02-11T22:48:00Z,30.0600,-84.2910,-9.981,1111122 
COMPS,ioos:station:USF.COMPS:SHP:1,2019-02-11T22:54:00Z,30.0600,-84.2910,-9.978,1111122 
COMPS,ioos:station:USF.COMPS:SHP:1,2019-02-11T23:00:00Z,30.0600,-84.2910,-9.975,1111122 
COMPS,ioos:station:USF.COMPS:SHP:1,2019-02-11T23:06:00Z,30.0600,-84.2910,-9.974,1111122 
COMPS,ioos:station:USF.COMPS:SHP:1,2019-02-11T23:12:00Z,30.0600,-84.2910,-9.971,1111122 
COMPS,ioos:station:USF.COMPS:SHP:1,2019-02-11T23:18:00Z,30.0600,-84.2910,-9.967,1111122 
COMPS,ioos:station:USF.COMPS:SHP:1,2019-02-11T23:24:00Z,30.0600,-84.2910,-9.964,1111122 
COMPS,ioos:station:USF.COMPS:SHP:1,2019-02-11T23:30:00Z,30.0600,-84.2910,-9.96,1111122 
COMPS,ioos:station:USF.COMPS:SHP:1,2019-02-11T23:36:00Z,30.0600,-84.2910,-9.957,1111122 
COMPS,ioos:station:USF.COMPS:SHP:1,2019-02-11T23:42:00Z,30.0600,-84.2910,-9.954,1111122 
COMPS,ioos:station:USF.COMPS:SHP:1,2019-02-11T23:48:00Z,30.0600,-84.2910,-9.951,1111122 
COMPS,ioos:station:USF.COMPS:SHP:1,2019-02-11T23:54:00Z,30.0600,-84.2910,-9.948,1111122 
COMPS,ioos:station:USF.COMPS:SHP:1,2019-02-12T00:00:00Z,30.0600,-84.2910,-9.945,1111122 
COMPS,ioos:station:USF.COMPS:SHP:1,2019-02-12T00:06:00Z,30.0600,-84.2910,-9.942,1111122 
COMPS,ioos:station:USF.COMPS:SHP:1,2019-02-12T00:12:00Z,30.0600,-84.2910,-9.939,1111122 
COMPS,ioos:station:USF.COMPS:SHP:1,2019-02-12T00:18:00Z,30.0600,-84.2910,-9.937,1111122 
COMPS,ioos:station:USF.COMPS:SHP:1,2019-02-12T00:24:00Z,30.0600,-84.2910,-9.934,1111122 
COMPS,ioos:station:USF.COMPS:SHP:1,2019-02-12T00:30:00Z,30.0600,-84.2910,-9.932,1111122 
COMPS,ioos:station:USF.COMPS:SHP:1,2019-02-12T00:36:00Z,30.0600,-84.2910,-9.929,1111122 
COMPS,ioos:station:USF.COMPS:SHP:1,2019-02-12T00:42:00Z,30.0600,-84.2910,-9.927,1111122 
COMPS,ioos:station:USF.COMPS:SHP:1,2019-02-12T00:48:00Z,30.0600,-84.2910,-9.925,1111122 
COMPS,ioos:station:USF.COMPS:SHP:1,2019-02-12T00:54:00Z,30.0600,-84.2910,-9.923,1111122 
COMPS,ioos:station:USF.COMPS:SHP:1,2019-02-12T01:00:00Z,30.0600,-84.2910,-9.921,1111122 
COMPS,ioos:station:USF.COMPS:SHP:1,2019-02-12T01:06:00Z,30.0600,-84.2910,-9.919,1111122 
COMPS,ioos:station:USF.COMPS:SHP:1,2019-02-12T01:12:00Z,30.0600,-84.2910,-9.916,1111122 
COMPS,ioos:station:USF.COMPS:SHP:1,2019-02-12T01:18:00Z,30.0600,-84.2910,-9.914,1111122 
COMPS,ioos:station:USF.COMPS:SHP:1,2019-02-12T01:24:00Z,30.0600,-84.2910,-9.913,1111122 
COMPS,ioos:station:USF.COMPS:SHP:1,2019-02-12T01:30:00Z,30.0600,-84.2910,-9.911,1111122 
COMPS,ioos:station:USF.COMPS:SHP:1,2019-02-12T01:36:00Z,30.0600,-84.2910,-9.91,1111122 
COMPS,ioos:station:USF.COMPS:SHP:1,2019-02-12T01:42:00Z,30.0600,-84.2910,-9.908,1111122 
COMPS,ioos:station:USF.COMPS:SHP:1,2019-02-12T01:48:00Z,30.0600,-84.2910,-9.906,1111122 
COMPS,ioos:station:USF.COMPS:SHP:1,2019-02-12T01:54:00Z,30.0600,-84.2910,-9.905,1111122 
COMPS,ioos:station:USF.COMPS:SHP:1,2019-02-12T02:00:00Z,30.0600,-84.2910,-9.904,1111122 
COMPS,ioos:station:USF.COMPS:SHP:1,2019-02-12T02:06:00Z,30.0600,-84.2910,-9.903,1111122 
COMPS,ioos:station:USF.COMPS:SHP:1,2019-02-12T02:12:00Z,30.0600,-84.2910,-9.902,1111122 
COMPS,ioos:station:USF.COMPS:SHP:1,2019-02-12T02:18:00Z,30.0600,-84.2910,-9.9,1111122 
COMPS,ioos:station:USF.COMPS:SHP:1,2019-02-12T02:24:00Z,30.0600,-84.2910,-9.9,1111122 
COMPS,ioos:station:USF.COMPS:SHP:1,2019-02-12T02:30:00Z,30.0600,-84.2910,-9.899,1111122 
COMPS,ioos:station:USF.COMPS:SHP:1,2019-02-12T02:36:00Z,30.0600,-84.2910,-9.898,1111122 
COMPS,ioos:station:USF.COMPS:SHP:1,2019-02-12T02:42:00Z,30.0600,-84.2910,-9.898,1111122 
COMPS,ioos:station:USF.COMPS:SHP:1,2019-02-12T02:48:00Z,30.0600,-84.2910,-9.898,1111122 
COMPS,ioos:station:USF.COMPS:SHP:1,2019-02-12T02:54:00Z,30.0600,-84.2910,-9.898,1111122 
COMPS,ioos:station:USF.COMPS:SHP:1,2019-02-12T03:00:00Z,30.0600,-84.2910,-9.899,1111122 
COMPS,ioos:station:USF.COMPS:SHP:1,2019-02-12T03:06:00Z,30.0600,-84.2910,-9.902,1111122 
COMPS,ioos:station:USF.COMPS:SHP:1,2019-02-12T03:12:00Z,30.0600,-84.2910,-9.908,1111122 
COMPS,ioos:station:USF.COMPS:SHP:1,2019-02-12T03:18:00Z,30.0600,-84.2910,-9.918,1111122 
COMPS,ioos:station:USF.COMPS:SHP:1,2019-02-12T03:24:00Z,30.0600,-84.2910,-9.929,1111122 
COMPS,ioos:station:USF.COMPS:SHP:1,2019-02-12T03:30:00Z,30.0600,-84.2910,-9.942,1111122 
COMPS,ioos:station:USF.COMPS:SHP:1,2019-02-12T03:36:00Z,30.0600,-84.2910,-9.956,1111122 
COMPS,ioos:station:USF.COMPS:SHP:1,2019-02-12T03:42:00Z,30.0600,-84.2910,-9.97,1111122 
COMPS,ioos:station:USF.COMPS:SHP:1,2019-02-12T03:48:00Z,30.0600,-84.2910,-9.984,1111122 
COMPS,ioos:station:USF.COMPS:SHP:1,2019-02-12T03:54:00Z,30.0600,-84.2910,-9.998,1111122 
COMPS,ioos:station:USF.COMPS:SHP:1,2019-02-12T12:42:00Z,30.0600,-84.2910,-9.999,1111122 
COMPS,ioos:station:USF.COMPS:SHP:1,2019-02-12T12:48:00Z,30.0600,-84.2910,-9.995,1111122 
COMPS,ioos:station:USF.COMPS:SHP:1,2019-02-12T12:54:00Z,30.0600,-84.2910,-9.992,1111122 
COMPS,ioos:station:USF.COMPS:SHP:1,2019-02-12T13:00:00Z,30.0600,-84.2910,-9.989,1111122 
COMPS,ioos:station:USF.COMPS:SHP:1,2019-02-12T13:06:00Z,30.0600,-84.2910,-9.986,1111122 
COMPS,ioos:station:USF.COMPS:SHP:1,2019-02-12T13:12:00Z,30.0600,-84.2910,-9.983,1111122 
COMPS,ioos:station:USF.COMPS:SHP:1,2019-02-12T13:18:00Z,30.0600,-84.2910,-9.98,1111122 
COMPS,ioos:station:USF.COMPS:SHP:1,2019-02-12T13:24:00Z,30.0600,-84.2910,-9.977,1111122 
COMPS,ioos:station:USF.COMPS:SHP:1,2019-02-12T13:30:00Z,30.0600,-84.2910,-9.975,1111122 
COMPS,ioos:station:USF.COMPS:SHP:1,2019-02-12T13:36:00Z,30.0600,-84.2910,-9.972,1111122 
COMPS,ioos:station:USF.COMPS:SHP:1,2019-02-12T13:42:00Z,30.0600,-84.2910,-9.969,1111122 
COMPS,ioos:station:USF.COMPS:SHP:1,2019-02-12T13:48:00Z,30.0600,-84.2910,-9.966,1111122 
COMPS,ioos:station:USF.COMPS:SHP:1,2019-02-12T13:54:00Z,30.0600,-84.2910,-9.964,1111122 
COMPS,ioos:station:USF.COMPS:SHP:1,2019-02-12T14:00:00Z,30.0600,-84.2910,-9.961,1111122 
COMPS,ioos:station:USF.COMPS:SHP:1,2019-02-12T14:06:00Z,30.0600,-84.2910,-9.958,1111122 
COMPS,ioos:station:USF.COMPS:SHP:1,2019-02-12T14:12:00Z,30.0600,-84.2910,-9.955,1111122 
COMPS,ioos:station:USF.COMPS:SHP:1,2019-02-12T14:18:00Z,30.0600,-84.2910,-9.953,1111122 
COMPS,ioos:station:USF.COMPS:SHP:1,2019-02-12T14:24:00Z,30.0600,-84.2910,-9.951,1111122 
COMPS,ioos:station:USF.COMPS:SHP:1,2019-02-12T14:30:00Z,30.0600,-84.2910,-9.949,1111122 
COMPS,ioos:station:USF.COMPS:SHP:1,2019-02-12T14:36:00Z,30.0600,-84.2910,-9.947,1111122 
COMPS,ioos:station:USF.COMPS:SHP:1,2019-02-12T14:42:00Z,30.0600,-84.2910,-9.946,1111122 
COMPS,ioos:station:USF.COMPS:SHP:1,2019-02-12T14:48:00Z,30.0600,-84.2910,-9.944,1111122 
COMPS,ioos:station:USF.COMPS:SHP:1,2019-02-12T14:54:00Z,30.0600,-84.2910,-9.942,1111122 
COMPS,ioos:station:USF.COMPS:SHP:1,2019-02-12T15:00:00Z,30.0600,-84.2910,-9.94,1111122 
COMPS,ioos:station:USF.COMPS:SHP:1,2019-02-12T15:06:00Z,30.0600,-84.2910,-9.938,1111122 
COMPS,ioos:station:USF.COMPS:SHP:1,2019-02-12T15:12:00Z,30.0600,-84.2910,-9.936,1111122 
COMPS,ioos:station:USF.COMPS:SHP:1,2019-02-12T15:18:00Z,30.0600,-84.2910,-9.934,1111122 
COMPS,ioos:station:USF.COMPS:SHP:1,2019-02-12T15:24:00Z,30.0600,-84.2910,-9.933,1111122 
COMPS,ioos:station:USF.COMPS:SHP:1,2019-02-12T15:30:00Z,30.0600,-84.2910,-9.932,1111122 
COMPS,ioos:station:USF.COMPS:SHP:1,2019-02-12T15:36:00Z,30.0600,-84.2910,-9.931,1111122 
COMPS,ioos:station:USF.COMPS:SHP:1,2019-02-12T15:42:00Z,30.0600,-84.2910,-9.93,1111122 
COMPS,ioos:station:USF.COMPS:SHP:1,2019-02-12T15:48:00Z,30.0600,-84.2910,-9.929,1111122 
COMPS,ioos:station:USF.COMPS:SHP:1,2019-02-12T15:54:00Z,30.0600,-84.2910,-9.929,1111122 
COMPS,ioos:station:USF.COMPS:SHP:1,2019-02-12T16:00:00Z,30.0600,-84.2910,-9.928,1111122 
COMPS,ioos:station:USF.COMPS:SHP:1,2019-02-12T16:06:00Z,30.0600,-84.2910,-9.927,1111122 
COMPS,ioos:station:USF.COMPS:SHP:1,2019-02-12T16:12:00Z,30.0600,-84.2910,-9.927,1111122 
COMPS,ioos:station:USF.COMPS:SHP:1,2019-02-12T16:18:00Z,30.0600,-84.2910,-9.926,1111122 
COMPS,ioos:station:USF.COMPS:SHP:1,2019-02-12T16:24:00Z,30.0600,-84.2910,-9.925,1111122 
COMPS,ioos:station:USF.COMPS:SHP:1,2019-02-12T16:30:00Z,30.0600,-84.2910,-9.924,1111122 
COMPS,ioos:station:USF.COMPS:SHP:1,2019-02-12T16:36:00Z,30.0600,-84.2910,-9.923,1111122 
COMPS,ioos:station:USF.COMPS:SHP:1,2019-02-12T16:42:00Z,30.0600,-84.2910,-9.921,1111122 
COMPS,ioos:station:USF.COMPS:SHP:1,2019-02-12T16:48:00Z,30.0600,-84.2910,-9.92,1111122 
COMPS,ioos:station:USF.COMPS:SHP:1,2019-02-12T16:54:00Z,30.0600,-84.2910,-9.918,1111122 
COMPS,ioos:station:USF.COMPS:SHP:1,2019-02-12T17:00:00Z,30.0600,-84.2910,-9.918,1111122 
COMPS,ioos:station:USF.COMPS:SHP:1,2019-02-12T17:06:00Z,30.0600,-84.2910,-9.917,1111122 
COMPS,ioos:station:USF.COMPS:SHP:1,2019-02-12T17:12:00Z,30.0600,-84.2910,-9.916,1111122 
COMPS,ioos:station:USF.COMPS:SHP:1,2019-02-12T17:18:00Z,30.0600,-84.2910,-9.915,1111122 
COMPS,ioos:station:USF.COMPS:SHP:1,2019-02-12T17:24:00Z,30.0600,-84.2910,-9.914,1111122 
COMPS,ioos:station:USF.COMPS:SHP:1,2019-02-12T17:30:00Z,30.0600,-84.2910,-9.915,1111122 
COMPS,ioos:station:USF.COMPS:SHP:1,2019-02-12T17:36:00Z,30.0600,-84.2910,-9.915,1111122 
COMPS,ioos:station:USF.COMPS:SHP:1,2019-02-12T17:42:00Z,30.0600,-84.2910,-9.916,1111122 
COMPS,ioos:station:USF.COMPS:SHP:1,2019-02-12T17:48:00Z,30.0600,-84.2910,-9.915,1111122 
COMPS,ioos:station:USF.COMPS:SHP:1,2019-02-12T17:54:00Z,30.0600,-84.2910,-9.915,1111122 
COMPS,ioos:station:USF.COMPS:SHP:1,2019-02-12T18:00:00Z,30.0600,-84.2910,-9.914,1111122 
COMPS,ioos:station:USF.COMPS:SHP:1,2019-02-12T18:06:00Z,30.0600,-84.2910,-9.914,1111122 
COMPS,ioos:station:USF.COMPS:SHP:1,2019-02-12T18:12:00Z,30.0600,-84.2910,-9.914,1111122 
COMPS,ioos:station:USF.COMPS:SHP:1,2019-02-12T18:18:00Z,30.0600,-84.2910,-9.913,1111122 
COMPS,ioos:station:USF.COMPS:SHP:1,2019-02-12T18:24:00Z,30.0600,-84.2910,-9.913,1111122 
COMPS,ioos:station:USF.COMPS:SHP:1,2019-02-12T18:30:00Z,30.0600,-84.2910,-9.911,1111122 
COMPS,ioos:station:USF.COMPS:SHP:1,2019-02-12T18:36:00Z,30.0600,-84.2910,-9.911,1111122 
COMPS,ioos:station:USF.COMPS:SHP:1,2019-02-12T18:42:00Z,30.0600,-84.2910,-9.91,1111122 
COMPS,ioos:station:USF.COMPS:SHP:1,2019-02-12T18:48:00Z,30.0600,-84.2910,-9.91,1111122 
COMPS,ioos:station:USF.COMPS:SHP:1,2019-02-12T18:54:00Z,30.0600,-84.2910,-9.91,1111122 
COMPS,ioos:station:USF.COMPS:SHP:1,2019-02-12T19:00:00Z,30.0600,-84.2910,-9.91,1111122 
COMPS,ioos:station:USF.COMPS:SHP:1,2019-02-12T19:06:00Z,30.0600,-84.2910,-9.909,1111122 
COMPS,ioos:station:USF.COMPS:SHP:1,2019-02-12T19:12:00Z,30.0600,-84.2910,-9.908,1111122 
COMPS,ioos:station:USF.COMPS:SHP:1,2019-02-12T19:18:00Z,30.0600,-84.2910,-9.907,1111122 
COMPS,ioos:station:USF.COMPS:SHP:1,2019-02-12T19:24:00Z,30.0600,-84.2910,-9.906,1111122 
COMPS,ioos:station:USF.COMPS:SHP:1,2019-02-12T19:30:00Z,30.0600,-84.2910,-9.905,1111122 
COMPS,ioos:station:USF.COMPS:SHP:1,2019-02-12T19:36:00Z,30.0600,-84.2910,-9.903,1111122 
COMPS,ioos:station:USF.COMPS:SHP:1,2019-02-12T19:42:00Z,30.0600,-84.2910,-9.902,1111122 
COMPS,ioos:station:USF.COMPS:SHP:1,2019-02-12T19:48:00Z,30.0600,-84.2910,-9.9,1111122 
COMPS,ioos:station:USF.COMPS:SHP:1,2019-02-12T19:54:00Z,30.0600,-84.2910,-9.898,1111122 
COMPS,ioos:station:USF.COMPS:SHP:1,2019-02-12T20:00:00Z,30.0600,-84.2910,-9.895,1111122 
COMPS,ioos:station:USF.COMPS:SHP:1,2019-02-12T20:06:00Z,30.0600,-84.2910,-9.893,1111122 
COMPS,ioos:station:USF.COMPS:SHP:1,2019-02-12T20:12:00Z,30.0600,-84.2910,-9.892,1111122 
COMPS,ioos:station:USF.COMPS:SHP:1,2019-02-12T20:18:00Z,30.0600,-84.2910,-9.891,1111122 
COMPS,ioos:station:USF.COMPS:SHP:1,2019-02-12T20:24:00Z,30.0600,-84.2910,-9.889,1111122 
COMPS,ioos:station:USF.COMPS:SHP:1,2019-02-12T20:30:00Z,30.0600,-84.2910,-9.887,1111122 
COMPS,ioos:station:USF.COMPS:SHP:1,2019-02-12T20:36:00Z,30.0600,-84.2910,-9.883,1111122 
COMPS,ioos:station:USF.COMPS:SHP:1,2019-02-12T20:42:00Z,30.0600,-84.2910,-9.88,1111122 
COMPS,ioos:station:USF.COMPS:SHP:1,2019-02-12T20:48:00Z,30.0600,-84.2910,-9.878,1111122 
COMPS,ioos:station:USF.COMPS:SHP:1,2019-02-12T20:54:00Z,30.0600,-84.2910,-9.877,1111122 
COMPS,ioos:station:USF.COMPS:SHP:1,2019-02-12T21:00:00Z,30.0600,-84.2910,-9.876,1111122 
COMPS,ioos:station:USF.COMPS:SHP:1,2019-02-12T21:06:00Z,30.0600,-84.2910,-9.873,1111122 
COMPS,ioos:station:USF.COMPS:SHP:1,2019-02-12T21:12:00Z,30.0600,-84.2910,-9.872,1111122 
COMPS,ioos:station:USF.COMPS:SHP:1,2019-02-12T21:18:00Z,30.0600,-84.2910,-9.87,1111122 
COMPS,ioos:station:USF.COMPS:SHP:1,2019-02-12T21:24:00Z,30.0600,-84.2910,-9.868,1111122 
COMPS,ioos:station:USF.COMPS:SHP:1,2019-02-12T21:30:00Z,30.0600,-84.2910,-9.865,1111122 
COMPS,ioos:station:USF.COMPS:SHP:1,2019-02-12T21:36:00Z,30.0600,-84.2910,-9.863,1111122 
COMPS,ioos:station:USF.COMPS:SHP:1,2019-02-12T21:42:00Z,30.0600,-84.2910,-9.861,1111122 
COMPS,ioos:station:USF.COMPS:SHP:1,2019-02-12T21:48:00Z,30.0600,-84.2910,-9.857,1111122 
COMPS,ioos:station:USF.COMPS:SHP:1,2019-02-12T21:54:00Z,30.0600,-84.2910,-9.855,1111122 
COMPS,ioos:station:USF.COMPS:SHP:1,2019-02-12T22:00:00Z,30.0600,-84.2910,-9.852,1111122 
COMPS,ioos:station:USF.COMPS:SHP:1,2019-02-12T22:06:00Z,30.0600,-84.2910,-9.849,1111122 
COMPS,ioos:station:USF.COMPS:SHP:1,2019-02-12T22:12:00Z,30.0600,-84.2910,-9.846,1111122 
COMPS,ioos:station:USF.COMPS:SHP:1,2019-02-12T22:18:00Z,30.0600,-84.2910,-9.843,1111122 
COMPS,ioos:station:USF.COMPS:SHP:1,2019-02-12T22:24:00Z,30.0600,-84.2910,-9.84,1111122 
COMPS,ioos:station:USF.COMPS:SHP:1,2019-02-12T22:30:00Z,30.0600,-84.2910,-9.838,1111122 
COMPS,ioos:station:USF.COMPS:SHP:1,2019-02-12T22:36:00Z,30.0600,-84.2910,-9.836,1111122 
COMPS,ioos:station:USF.COMPS:SHP:1,2019-02-12T22:42:00Z,30.0600,-84.2910,-9.833,1111122 
COMPS,ioos:station:USF.COMPS:SHP:1,2019-02-12T22:48:00Z,30.0600,-84.2910,-9.83,1111122 
COMPS,ioos:station:USF.COMPS:SHP:1,2019-02-12T22:54:00Z,30.0600,-84.2910,-9.827,1111122 
COMPS,ioos:station:USF.COMPS:SHP:1,2019-02-12T23:00:00Z,30.0600,-84.2910,-9.825,1111122 
COMPS,ioos:station:USF.COMPS:SHP:1,2019-02-12T23:06:00Z,30.0600,-84.2910,-9.821,1111122 
COMPS,ioos:station:USF.COMPS:SHP:1,2019-02-12T23:12:00Z,30.0600,-84.2910,-9.819,1111122 
COMPS,ioos:station:USF.COMPS:SHP:1,2019-02-12T23:18:00Z,30.0600,-84.2910,-9.816,1111122 
COMPS,ioos:station:USF.COMPS:SHP:1,2019-02-12T23:24:00Z,30.0600,-84.2910,-9.813,1111122 
COMPS,ioos:station:USF.COMPS:SHP:1,2019-02-12T23:30:00Z,30.0600,-84.2910,-9.81,1111122 
COMPS,ioos:station:USF.COMPS:SHP:1,2019-02-12T23:36:00Z,30.0600,-84.2910,-9.807,1111122 
COMPS,ioos:station:USF.COMPS:SHP:1,2019-02-12T23:42:00Z,30.0600,-84.2910,-9.805,1111122 
COMPS,ioos:station:USF.COMPS:SHP:1,2019-02-12T23:48:00Z,30.0600,-84.2910,-9.802,1111122 
COMPS,ioos:station:USF.COMPS:SHP:1,2019-02-12T23:54:00Z,30.0600,-84.2910,-9.8,1111122 
COMPS,ioos:station:USF.COMPS:SHP:1,2019-02-13T00:00:00Z,30.0600,-84.2910,-9.797,1111122 
COMPS,ioos:station:USF.COMPS:SHP:1,2019-02-13T00:06:00Z,30.0600,-84.2910,-9.795,1111122 
COMPS,ioos:station:USF.COMPS:SHP:1,2019-02-13T00:12:00Z,30.0600,-84.2910,-9.792,1111122 
COMPS,ioos:station:USF.COMPS:SHP:1,2019-02-13T00:18:00Z,30.0600,-84.2910,-9.79,1111122 
COMPS,ioos:station:USF.COMPS:SHP:1,2019-02-13T00:24:00Z,30.0600,-84.2910,-9.788,1111122 
COMPS,ioos:station:USF.COMPS:SHP:1,2019-02-13T00:30:00Z,30.0600,-84.2910,-9.786,1111122 
COMPS,ioos:station:USF.COMPS:SHP:1,2019-02-13T00:36:00Z,30.0600,-84.2910,-9.784,1111122 
COMPS,ioos:station:USF.COMPS:SHP:1,2019-02-13T00:42:00Z,30.0600,-84.2910,-9.782,1111122 
COMPS,ioos:station:USF.COMPS:SHP:1,2019-02-13T00:48:00Z,30.0600,-84.2910,-9.781,1111122 
COMPS,ioos:station:USF.COMPS:SHP:1,2019-02-13T00:54:00Z,30.0600,-84.2910,-9.78,1111122 
COMPS,ioos:station:USF.COMPS:SHP:1,2019-02-13T01:00:00Z,30.0600,-84.2910,-9.778,1111122 
COMPS,ioos:station:USF.COMPS:SHP:1,2019-02-13T01:06:00Z,30.0600,-84.2910,-9.776,1111122 
COMPS,ioos:station:USF.COMPS:SHP:1,2019-02-13T01:12:00Z,30.0600,-84.2910,-9.774,1111122 
COMPS,ioos:station:USF.COMPS:SHP:1,2019-02-13T01:18:00Z,30.0600,-84.2910,-9.773,1111122 
COMPS,ioos:station:USF.COMPS:SHP:1,2019-02-13T01:24:00Z,30.0600,-84.2910,-9.771,1111122 
COMPS,ioos:station:USF.COMPS:SHP:1,2019-02-13T01:30:00Z,30.0600,-84.2910,-9.77,1111122 
COMPS,ioos:station:USF.COMPS:SHP:1,2019-02-13T01:36:00Z,30.0600,-84.2910,-9.769,1111122 
COMPS,ioos:station:USF.COMPS:SHP:1,2019-02-13T01:42:00Z,30.0600,-84.2910,-9.767,1111122 
COMPS,ioos:station:USF.COMPS:SHP:1,2019-02-13T01:48:00Z,30.0600,-84.2910,-9.766,1111122 
COMPS,ioos:station:USF.COMPS:SHP:1,2019-02-13T01:54:00Z,30.0600,-84.2910,-9.765,1111122 
COMPS,ioos:station:USF.COMPS:SHP:1,2019-02-13T02:00:00Z,30.0600,-84.2910,-9.765,1111122 
COMPS,ioos:station:USF.COMPS:SHP:1,2019-02-13T02:06:00Z,30.0600,-84.2910,-9.764,1111122 
COMPS,ioos:station:USF.COMPS:SHP:1,2019-02-13T02:12:00Z,30.0600,-84.2910,-9.763,1111122 
COMPS,ioos:station:USF.COMPS:SHP:1,2019-02-13T02:18:00Z,30.0600,-84.2910,-9.763,1111122 